[[{"header":{"parameterUnit":"m.s-1","parameterCategory":1,"la1":30.2991,"la2":30.254,"lo1":-89.0895,"lo2":-89.0444,"dy":0.0017,"dx":0.0017,"nx":28,"ny":28,"refTime":"2025-07-30T03:00:00:Z","depth":0,"parameterNumber":2,"parameterNumberName":"U-component_of_WINDS"},"data":[0,0,0,0,0,0,0,0,0,0,0,0,0,0,0,0,0,0,0,0,0,0,0,0,0,0,0,0,0,0,0,0,0,0,0,0,0,0,0,0,0,0,0,0,0,0,0,0,0,0,0,0,0,0,0,0,0,0,5.1091,5.1093,0,5.1233,5.1234,5.1236,5.1162,5.1158,5.1154,5.1151,5.1296,5.1304,5.1311,0,0,0,0,0,0,0,0,0,0,0,0,0,5.0756,5.0762,5.1091,5.1093,5.1094,5.1232,5.1234,5.1236,5.1162,5.1158,5.1153,5.1149,5.1294,5.1303,5.1312,0,0,0,0,0,0,0,0,0,0,0,0,0,5.09,5.0764,5.1091,5.1074,5.1074,5.1232,5.1234,5.1237,5.1163,5.1158,5.1152,5.1147,5.1291,5.1302,5.1313,5.1495,0,0,5.1347,5.1352,0,0,0,0,0,0,0,0,5.0892,5.0912,5.1075,5.1076,5.1076,5.1174,5.1169,5.1323,5.1165,5.113,5.1151,5.1144,5.126,5.1274,5.1313,5.1502,5.1508,5.1348,5.1355,5.1359,5.1362,0,0,0,0,0,0,0,5.0882,5.0906,5.1147,5.1077,5.1078,5.1059,5.1074,5.1198,5.1225,5.1132,5.1127,5.1145,5.1259,5.1302,5.1315,5.151,5.1347,5.1357,5.1364,5.1369,5.1853,5.1859,0,0,0,0,0,0,5.0873,5.0898,5.1142,5.1151,5.0968,5.107,5.1086,5.1148,5.1223,5.1229,5.115,5.1141,5.1286,5.1303,5.132,5.1536,5.1359,5.137,5.1376,5.1847,5.1854,5.1861,0,0,0,0,0,0,5.0866,5.0895,5.1137,5.1023,5.1052,5.1082,5.1152,5.1154,5.1196,5.1237,5.1241,5.1188,5.1282,5.1305,5.1451,5.154,5.1375,5.1385,5.184,5.1849,5.1858,5.1971,0,0,0,0,0,0,5.0856,5.0893,5.0963,5.1025,5.1059,5.1266,5.1158,5.1161,5.1216,5.1206,5.1274,5.128,5.1279,5.1435,5.1462,5.1553,5.1393,5.1832,5.1844,5.1855,5.1959,5.1983,5.2003,0,0,0,0,0,5.0845,5.099,5.0967,5.0997,5.1147,5.1271,5.129,5.1287,5.1223,5.1293,5.1319,5.1278,5.1527,5.1451,5.1481,5.1576,5.1826,5.184,5.1854,5.1949,5.1978,5.2003,0,0,0,0,0,0,5.0938,5.0998,5.0973,5.1143,5.1202,5.1259,5.1347,5.1318,5.1397,5.1384,5.1376,5.1392,5.1544,5.1575,5.149,5.1755,5.1666,5.1687,5.1729,5.1756,5.1778,5.1767,5.1403,0,0,0,0,0,5.0978,5.1074,5.1122,5.1267,5.1298,5.1318,5.1372,5.1363,5.1425,5.145,5.1486,5.1548,5.1639,5.17,5.1787,5.1964,5.1976,5.2044,5.2066,5.2083,5.2101,5.2194,5.2224,5.1907,5.1907,5.1907,0,0,5.1062,5.1107,5.1168,5.1287,5.1332,5.1431,5.1339,5.1449,5.1522,5.1467,5.1606,5.1636,5.1703,5.1865,5.1939,5.1896,5.2191,5.2101,5.2115,5.2123,5.2212,5.2242,5.2268,5.1916,5.1915,5.1913,0,0,5.1266,5.131,5.1435,5.1482,5.1551,5.1563,5.1593,5.1654,5.167,5.1811,5.177,5.1857,5.2016,5.2065,5.2111,5.2332,5.2296,5.2361,5.2474,5.2566,5.2591,5.2613,5.2689,5.2717,5.2378,5.2378,5.2379,0,5.1362,5.1509,5.1503,5.1614,5.1667,5.1621,5.1746,5.1792,5.1887,5.1924,5.1874,5.2071,5.2113,5.2285,5.2339,5.2378,5.2411,5.2352,5.2588,5.261,5.263,5.2703,5.2732,5.2386,5.2385,5.2384,5.2383,0,5.1622,5.1726,5.1818,5.1909,5.1972,5.209,5.2101,5.2165,5.2151,5.2168,5.2311,5.236,5.2455,5.2495,5.2484,5.2665,5.2636,5.2588,5.2498,5.2668,5.2736,5.2764,5.2396,5.2393,5.2391,5.2389,0,0,5.1888,5.1973,5.2007,5.2047,5.212,5.2199,5.2315,5.2407,5.2461,5.2528,5.2623,5.2758,5.2713,5.2765,5.2758,5.2839,5.3007,5.278,5.2781,5.2818,5.3208,5.3242,5.3275,5.2985,5.299,5.2994,5.3201,0,5.2095,5.2296,5.2293,5.248,5.2574,5.2531,5.2631,5.2686,5.2705,5.2787,5.2808,5.2902,5.2837,5.2868,5.2946,5.297,5.3085,5.2956,5.3072,5.3077,5.3054,5.3311,5.3348,5.3541,5.3228,5.3233,5.3236,0,5.2363,5.2437,5.2633,5.2689,5.2729,5.2819,5.2902,5.2982,5.3043,5.305,5.3108,5.3088,5.3204,5.3113,5.3272,5.3184,5.3232,5.3252,5.3259,5.3268,5.3165,5.3325,5.3603,5.3631,5.3278,5.3275,5.3272,0,5.2534,5.2683,5.2819,5.2855,5.2925,5.2989,5.3021,5.3077,5.3132,5.3205,5.324,5.3326,5.3372,5.3439,5.3442,5.3376,5.3602,5.3512,5.3611,5.3611,5.3659,5.3656,5.3946,5.3694,5.3693,5.3693,5.3692,0,5.2764,5.2885,5.2896,5.298,5.3113,5.3108,5.3241,5.3267,5.3316,5.3403,5.3373,5.3455,5.3455,5.3539,5.3543,5.3673,5.3695,5.3703,5.3703,5.3705,5.3704,5.3735,5.3721,5.37,5.3699,5.3697,5.3696,0,5.2977,5.299,5.3135,5.3189,5.3205,5.3301,5.3347,5.3426,5.3442,5.3552,5.3578,5.3602,5.3699,5.3709,5.3823,5.3825,5.3981,5.3967,5.396,5.3957,5.4055,5.4044,5.4374,5.4415,5.4138,5.414,5.4143,0,5.3122,5.3213,5.3277,5.3333,5.3368,5.3459,5.3514,5.3513,5.3572,5.3647,5.3717,5.381,5.3885,5.4042,5.4069,5.4155,5.4142,5.4251,5.4154,5.4153,5.4141,5.4134,5.4142,5.4269,5.4272,5.4275,5.4277,0,5.3376,5.3378,5.3459,5.3542,5.3609,5.3675,5.3736,5.3783,5.3789,5.3857,5.3955,5.4013,5.4128,5.422,5.4305,5.4337,5.4308,5.4307,5.4334,5.4337,5.4328,5.4331,5.4009,5.4299,5.4297,5.4295,5.4294,5.4293,5.3558,5.3637,5.3693,5.3784,5.383,5.3888,5.3963,5.3988,5.407,5.4162,5.4157,5.4265,5.4322,5.4431,5.447,5.4554,5.4518,5.4558,5.4567,5.4577,5.4585,5.4316,5.457,5.4569,5.4569,5.4568,5.4568,0,5.3809,5.3843,5.3926,5.4013,5.4084,5.405,5.4116,5.4177,5.4273,5.4328,5.4402,5.4514,5.4603,5.4638,5.4725,5.4785,5.4774,5.4808,5.4803,5.481,5.4614,5.4581,5.4816,5.4816,5.4816,5.4816,5.4816,5.4815,5.3947,5.4078,5.4086,5.4238,5.4271,5.4376,5.4416,5.4469,5.4513,5.4639,5.4713,5.4735,5.4782,5.4872,5.4952,5.496,5.4992,5.5032,5.5034,5.4849,5.4824,5.48,5.4769,5.5039,5.504,5.5222,5.5224,5.5225]},{"header":{"parameterUnit":"m.s-1","parameterCategory":1,"la1":30.2991,"la2":30.254,"lo1":-89.0895,"lo2":-89.0444,"dy":0.0017,"dx":0.0017,"nx":28,"ny":28,"refTime":"2025-07-30T03:00:00:Z","depth":0,"parameterNumber":3,"parameterNumberName":"V-component_of_WINDS"},"data":[0,0,0,0,0,0,0,0,0,0,0,0,0,0,0,0,0,0,0,0,0,0,0,0,0,0,0,0,0,0,0,0,0,0,0,0,0,0,0,0,0,0,0,0,0,0,0,0,0,0,0,0,0,0,0,0,0,0,4.5625,4.5625,0,4.5704,4.5705,4.5705,4.5679,4.5677,4.5675,4.5673,4.575,4.5754,4.5757,0,0,0,0,0,0,0,0,0,0,0,0,0,4.5445,4.5449,4.5624,4.5625,4.5626,4.5703,4.5705,4.5706,4.5679,4.5677,4.5675,4.5673,4.5749,4.5753,4.5758,0,0,0,0,0,0,0,0,0,0,0,0,0,4.5524,4.545,4.5624,4.5622,4.5623,4.5703,4.5705,4.5706,4.5679,4.5677,4.5674,4.5672,4.5748,4.5753,4.5758,4.5844,0,0,4.5775,4.5778,0,0,0,0,0,0,0,0,4.5519,4.553,4.5622,4.5623,4.5624,4.5679,4.567,4.5752,4.568,4.5658,4.5673,4.567,4.5728,4.5735,4.5756,4.5847,4.5851,4.5776,4.5779,4.5781,4.5783,0,0,0,0,0,0,0,4.5514,4.5527,4.5656,4.5623,4.5624,4.5616,4.5624,4.5685,4.5706,4.566,4.5658,4.5668,4.5728,4.575,4.5757,4.5852,4.5775,4.578,4.5784,4.5786,4.6016,4.6019,0,0,0,0,0,0,4.5509,4.5522,4.5653,4.5658,4.5564,4.5621,4.5631,4.5663,4.5706,4.571,4.567,4.5666,4.5742,4.5751,4.576,4.5862,4.5781,4.5786,4.579,4.6014,4.6017,4.602,0,0,0,0,0,0,4.5505,4.5521,4.565,4.559,4.5606,4.5627,4.5664,4.5666,4.5689,4.5714,4.5717,4.5689,4.5741,4.5752,4.5823,4.5864,4.5789,4.5794,4.601,4.6015,4.6019,4.6067,0,0,0,0,0,0,4.55,4.5519,4.5553,4.5591,4.5609,4.5714,4.5667,4.567,4.5699,4.5695,4.5732,4.5736,4.5739,4.5815,4.5829,4.587,4.5798,4.6007,4.6012,4.6017,4.6062,4.6072,4.6081,0,0,0,0,0,4.5494,4.5563,4.5555,4.5571,4.5652,4.5716,4.5726,4.573,4.5702,4.5735,4.5751,4.5735,4.5858,4.5823,4.5838,4.5881,4.6004,4.6011,4.6017,4.6057,4.607,4.6081,0,0,0,0,0,0,4.5528,4.5568,4.556,4.5644,4.5677,4.5711,4.5754,4.5744,4.5784,4.5779,4.578,4.5789,4.5862,4.5879,4.5839,4.5966,4.5926,4.5936,4.5952,4.5965,4.5974,4.5968,4.5803,0,0,0,0,0,4.5546,4.5596,4.5627,4.5698,4.5716,4.5732,4.576,4.576,4.5794,4.5807,4.5829,4.5861,4.5906,4.5936,4.598,4.6064,4.6071,4.6102,4.6111,4.6119,4.6127,4.6172,4.6185,4.6041,4.6041,4.6041,0,0,4.5583,4.561,4.5642,4.5706,4.5732,4.5782,4.5744,4.5799,4.5836,4.5815,4.5884,4.5901,4.5936,4.6014,4.6049,4.603,4.6169,4.6127,4.6134,4.6137,4.618,4.6193,4.6206,4.6045,4.6045,4.6044,0,0,4.5675,4.5702,4.5763,4.579,4.583,4.584,4.5855,4.5891,4.5902,4.5971,4.5957,4.6,4.6079,4.6105,4.6128,4.623,4.6216,4.6244,4.6295,4.6338,4.6349,4.6359,4.6395,4.6407,4.6252,4.6252,4.6252,0,4.5715,4.5792,4.5796,4.5853,4.588,4.5866,4.5927,4.5952,4.6004,4.6023,4.6001,4.61,4.6123,4.6206,4.6231,4.6251,4.6266,4.6239,4.6348,4.6358,4.6367,4.6401,4.6414,4.6255,4.6255,4.6254,4.6254,0,4.5838,4.5892,4.5936,4.5988,4.6021,4.608,4.6091,4.6124,4.6121,4.6133,4.6203,4.623,4.6279,4.6298,4.6296,4.6381,4.6368,4.6347,4.6307,4.6384,4.6416,4.6429,4.626,4.6258,4.6258,4.6257,0,0,4.5955,4.6008,4.6024,4.6047,4.609,4.613,4.6187,4.6236,4.6263,4.6299,4.6346,4.6413,4.6394,4.6421,4.6421,4.6459,4.6536,4.6433,4.6434,4.6451,4.6631,4.6645,4.666,4.6528,4.653,4.6532,4.6627,0,4.605,4.6152,4.6157,4.6249,4.6298,4.6284,4.6334,4.6364,4.6377,4.6419,4.6432,4.6479,4.6451,4.6467,4.6504,4.6519,4.6572,4.6513,4.657,4.6572,4.6561,4.6677,4.6693,4.6782,4.664,4.6642,4.6643,0,4.6174,4.6215,4.6313,4.6348,4.6368,4.6413,4.6458,4.6498,4.6532,4.6538,4.6568,4.6563,4.662,4.6579,4.6656,4.6615,4.6639,4.665,4.6653,4.6658,4.6612,4.6684,4.681,4.6823,4.6663,4.6661,4.666,0,4.6248,4.6327,4.6396,4.6416,4.6459,4.649,4.6509,4.6541,4.657,4.6608,4.6626,4.667,4.6694,4.6728,4.6733,4.6703,4.6811,4.677,4.6816,4.6816,4.6839,4.6837,4.697,4.6856,4.6855,4.6855,4.6855,0,4.6353,4.6413,4.6429,4.6471,4.6538,4.6542,4.6607,4.6624,4.6652,4.6695,4.6686,4.6727,4.6732,4.6774,4.6779,4.6841,4.6852,4.6858,4.6858,4.6859,4.6858,4.6873,4.6867,4.6859,4.6858,4.6857,4.6857,0,4.6446,4.646,4.6534,4.6569,4.6579,4.6626,4.6655,4.6694,4.6706,4.6761,4.6774,4.6792,4.6841,4.685,4.6907,4.691,4.6985,4.6979,4.6974,4.6973,4.7018,4.7013,4.7164,4.7184,4.7058,4.7059,4.706,0,4.6512,4.6558,4.6598,4.6628,4.6649,4.6696,4.6725,4.6731,4.6762,4.6804,4.6838,4.6886,4.6924,4.7003,4.7019,4.7063,4.7058,4.7108,4.7064,4.7062,4.7057,4.7054,4.7058,4.7116,4.7117,4.7118,4.7119,0,4.6627,4.6632,4.6675,4.6721,4.6757,4.6793,4.6827,4.6851,4.6862,4.6896,4.6947,4.6977,4.7036,4.7083,4.7126,4.7144,4.7133,4.7133,4.7146,4.7146,4.714,4.7143,4.6996,4.7129,4.7128,4.7127,4.7127,4.7126,4.6708,4.6748,4.6782,4.6831,4.6858,4.689,4.6928,4.6945,4.6988,4.7037,4.7038,4.7093,4.7124,4.7181,4.7202,4.7244,4.7227,4.7246,4.7251,4.7255,4.7259,4.7135,4.7251,4.7251,4.7251,4.7251,4.725,0,4.6821,4.6843,4.6888,4.6937,4.6975,4.6963,4.7,4.7032,4.7081,4.7112,4.715,4.7207,4.7253,4.7274,4.7318,4.7348,4.7344,4.7359,4.7356,4.7361,4.7271,4.7255,4.7362,4.7362,4.7362,4.7362,4.7362,4.7361,4.6885,4.6951,4.696,4.7039,4.706,4.7115,4.7137,4.7166,4.7191,4.7256,4.7294,4.7308,4.7334,4.7381,4.7421,4.7426,4.7442,4.746,4.7462,4.7378,4.7367,4.7356,4.7341,4.7464,4.7464,4.7548,4.7549,4.755]}]]